{"data":{"norad_id":57076,"epoch":"2026-05-24T23:15:21.600000Z","epoch_age_seconds":74760,"freshness":"FRESH","line1":"1 57076U 23088AE  26144.96900000  .00000012  00000+0  99741-5 0  9994","line2":"2 57076  43.0057  25.5680 0001282 265.2545  94.8161 15.27576964161991","mean_motion":15.27576964,"eccentricity":0.0001282,"inclination_deg":43.0057,"raan_deg":25.568,"arg_perigee_deg":265.2545,"mean_anomaly_deg":94.8161,"bstar":9.9741e-6,"rev_number":16199,"period_min":94.266936065161,"perigee_km":482.17858170794,"apogee_km":483.93779215387,"semimajor_km":6861.1951869309,"source":"CELESTRAK","updated_at":"2026-05-25T13:38:18.214731Z"}}